Location: Dealu Mare
(46.0500°N, 22.8167°E)
Time: 23:11:14
(UTC+00:00)

IGS 5A - Pass Details

Date: 15 January 2026
Orbit: 551 x 554 km, 97.4° (Epoch: 8 January)

Event Time Altitude Azimuth Distance (km) Brightness Sun altitude
Rises 04:22:26 0° 12° (NNE) 2,739 6.9 -17.7°
Reaches altitude 10° 04:24:35 10° 13° (NNE) 1,840 6.0 -17.3°
Maximum altitude 04:28:34 87° 97° (E) 559 3.3 -16.6°
Drops below altitude 10° 04:32:31 10° 193° (SSW) 1,824 6.0 -16.0°
Sets 04:34:38 0° 193° (SSW) 2,714 6.9 -15.6°
